FW2462 Weather Reports


time (UTC)temp
C
wind
direction
speed
KPH
gust
KPH
rain 1hr
cm
rain 24hr
cm
rain mn
cm
humidity
%
barometer
mb
20260510204742 29 249 3.2 9.7 0.00 0.00 0.00 33 1017.5
20260510204242 29 218 1.6 8.0 0.00 0.00 0.00 33 1017.4
20260510203742 28 326 3.2 11.3 0.00 0.00 0.00 34 1017.4
20260510203241 28 259 4.8 17.7 0.00 0.00 0.00 33 1017.5
20260510202740 28 257 4.8 17.7 0.00 0.00 0.00 33 1017.4
20260510202238 28 207 4.8 14.5 0.00 0.00 0.00 32 1017.4
20260510201739 28 167 3.2 12.9 0.00 0.00 0.00 32 1017.4
20260510201241 28 285 4.8 14.5 0.00 0.00 0.00 33 1017.5
20260510200739 28 305 3.2 14.5 0.00 0.00 0.00 33 1017.4
20260510200238 28 181 1.6 11.3 0.00 0.00 0.00 33 1017.4
20260510195741 28 354 3.2 9.7 0.00 0.00 0.00 33 1017.5
20260510195504 28 139 4.8 9.7 0.00 0.00 0.00 34 1017.6
20260510194734 28 276 4.8 14.5 0.00 0.00 0.00 33 1017.6
20260510194451 28 262 3.2 14.5 0.00 0.00 0.00 33 1017.7
20260510193949 28 232 4.8 16.1 0.00 0.00 0.00 33 1017.6
20260510193214 28 334 3.2 16.1 0.00 0.00 0.00 32 1017.6
20260510192709 28 217 1.6 11.3 0.00 0.00 0.00 33 1017.7
20260510192423 28 282 3.2 11.3 0.00 0.00 0.00 33 1017.8
20260510191923 28 203 3.2 11.3 0.00 0.00 0.00 34 1017.8
20260510191150 28 6 4.8 11.3 0.00 0.00 0.00 31 1017.9
20260510190645 28 306 3.2 11.3 0.00 0.00 0.00 32 1018.0
20260510190138 28 188 1.6 8.0 0.00 0.00 0.00 32 1018.1
20260510185632 28 142 3.2 9.7 0.00 0.00 0.00 31 1018.1
20260510185129 28 295 3.2 9.7 0.00 0.00 0.00 34 1018.1
20260510184620 28 200 4.8 16.1 0.00 0.00 0.00 33 1018.2
20260510184115 28 330 6.4 16.1 0.00 0.00 0.00 35 1018.2
20260510183608 28 238 6.4 16.1 0.00 0.00 0.00 35 1018.2
20260510183105 28 207 3.2 12.9 0.00 0.00 0.00 35 1018.2
20260510182556 28 267 1.6 11.3 0.00 0.00 0.00 35 1018.1
20260510182051 28 84 1.6 11.3 0.00 0.00 0.00 37 1018.1
20260510181545 28 135 3.2 11.3 0.00 0.00 0.00 34 1018.3
20260510181038 28 264 3.2 11.3 0.00 0.00 0.00 33 1018.2
20260510180532 28 250 3.2 14.5 0.00 0.00 0.00 33 1018.3
20260510180027 27 169 3.2 14.5 0.00 0.00 0.00 33 1018.2
20260510175521 27 300 6.4 14.5 0.00 0.00 0.00 34 1018.4
20260510175015 27 87 4.8 14.5 0.00 0.00 0.00 32 1018.5
20260510174508 27 163 4.8 14.5 0.00 0.00 0.00 34 1018.3
20260510174230 27 295 4.8 14.5 0.00 0.00 0.00 32 1018.4
20260510173457 27 1 3.2 11.3 0.00 0.00 0.00 34 1018.5
20260510173439 27 270 3.2 11.3 0.00 0.00 0.00 33 1018.6
20260510172444 27 264 4.8 20.9 0.00 0.00 0.00 31 1018.7
20260510172200 27 203 4.8 20.9 0.00 0.00 0.00 32 1018.6
20260510171432 27 250 3.2 14.5 0.00 0.00 0.00 33 1018.6
20260510171155 27 189 3.2 9.7 0.00 0.00 0.00 36 1018.6
20260510170420 27 82 3.2 11.3 0.00 0.00 0.00 35 1018.5
20260510165915 27 219 4.8 12.9 0.00 0.00 0.00 38 1018.6
20260510165409 27 223 4.8 12.9 0.00 0.00 0.00 37 1018.6
20260510164902 27 122 3.2 11.3 0.00 0.00 0.00 37 1018.6
20260510164356 27 82 3.2 11.3 0.00 0.00 0.00 37 1018.6
20260510163851 27 171 3.2 12.9 0.00 0.00 0.00 37 1018.7
20260510163344 27 278 3.2 12.9 0.00 0.00 0.00 38 1018.7
20260510162842 27 164 1.6 9.7 0.00 0.00 0.00 35 1018.7
20260510162559 27 226 1.6 12.9 0.00 0.00 0.00 36 1018.7
20260510161839 26 73 3.2 12.9 0.00 0.00 0.00 37 1018.8
20260510161556 26 43 3.2 12.9 0.00 0.00 0.00 37 1018.8
20260510160835 26 61 3.2 8.0 0.00 0.00 0.00 37 1018.9
20260510160334 26 35 1.6 6.4 0.00 0.00 0.00 38 1019.0
20260510155834 26 50 1.6 8.0 0.00 0.00 0.00 41 1019.0
20260510155553 26 92 3.2 8.0 0.00 0.00 0.00 37 1019.0
20260510155103 25 306 3.2 8.0 0.00 0.00 0.00 42 1019.0
20260510154333 25 9 4.8 11.3 0.00 0.00 0.00 47 1019.1
20260510153833 25 48 4.8 11.3 0.00 0.00 0.00 48 1019.2
20260510153337 25 68 3.2 12.9 0.00 0.00 0.00 46 1019.2
20260510152833 25 17 3.2 14.5 0.00 0.00 0.00 50 1019.2
20260510152332 25 46 3.2 14.5 0.00 0.00 0.00 49 1019.2
20260510151329 25 68 1.6 8.0 0.00 0.00 0.00 53 1019.2
20260510151053 25 53 3.2 11.3 0.00 0.00 0.00 51 1019.3
20260510150555 25 220 3.2 11.3 0.00 0.00 0.00 51 1019.2
20260510145825 25 14 1.6 6.4 0.00 0.00 0.00 54 1019.2
20260510145318 25 234 1.6 6.4 0.00 0.00 0.00 51 1019.2
20260510145029 25 344 1.6 8.0 0.00 0.00 0.00 53 1019.3
20260510144536 24 276 1.6 8.0 0.00 0.00 0.00 52 1019.2
20260510143801 24 231 1.6 6.4 0.00 0.00 0.00 52 1019.2
20260510143301 24 132 1.6 11.3 0.00 0.00 0.00 53 1019.2
20260510142801 24 320 1.6 11.3 0.00 0.00 0.00 52 1019.1
20260510142258 24 32 0.0 3.2 0.00 0.00 0.00 54 1019.3
20260510141800 23 14 1.6 4.8 0.00 0.00 0.00 56 1019.4
20260510141257 23 241 1.6 4.8 0.00 0.00 0.00 52 1019.3
20260510140757 23 29 1.6 4.8 0.00 0.00 0.00 55 1019.3
20260510140256 23 316 0.0 4.8 0.00 0.00 0.00 57 1019.2
20260510140024 23 16 1.6 6.4 0.00 0.00 0.00 58 1019.2
20260510135256 22 5 1.6 6.4 0.00 0.00 0.00 54 1019.2
20260510134801 22 32 0.0 3.2 0.00 0.00 0.00 56 1019.1
20260510133254 21 302 0.0 6.4 0.00 0.00 0.00 63 1019.0
20260510132755 21 61 0.0 1.6 0.00 0.00 0.00 70 1019.0
20260510132253 20 357 0.0 1.6 0.00 0.00 0.00 72 1019.0
20260510130750 18 315 0.0 1.6 0.00 0.00 0.00 83 1019.0
20260510125510 15 12 0.0 0.0 0.00 0.00 0.00 93 1019.0
20260510124749 15 12 0.0 0.0 0.00 0.00 0.00 92 1019.0
20260510123508 13 358 0.0 0.0 0.00 0.00 0.00 98 1018.7
20260510120743 12 358 0.0 0.0 0.00 0.00 0.00 99 1018.3
20260510120004 12 358 0.0 0.0 0.00 0.00 0.00 98 1018.1
20260510115721 12 358 0.0 0.0 0.00 0.00 0.00 99 1018.1
20260510114736 12 358 0.0 0.0 0.00 0.00 0.00 99 1017.9
20260510114230 11 358 0.0 0.0 0.00 0.00 0.00 98 1017.8
20260510113218 11 358 0.0 0.0 0.00 0.00 0.00 98 1017.6
20260510112712 11 358 0.0 0.0 0.00 0.00 0.00 98 1017.5
20260510112206 11 358 0.0 0.0 0.00 0.00 0.00 98 1017.5
20260510111930 11 359 0.0 0.0 0.00 0.00 0.00 98 1017.4
20260510110648 11 358 0.0 0.0 0.00 0.00 0.00 97 1017.0
20260510110142 11 358 0.0 0.0 0.00 0.00 0.00 97 1017.2
20260510105638 11 358 0.0 0.0 0.00 0.00 0.00 97 1017.2
20260510104624 11 358 0.0 0.0 0.00 0.00 0.00 97 1017.0
20260510104118 11 358 0.0 1.6 0.00 0.00 0.00 97 1016.9
20260510103611 11 358 0.0 1.6 0.00 0.00 0.00 97 1016.8
20260510103105 11 358 0.0 0.0 0.00 0.00 0.00 97 1016.6
20260510102600 11 358 0.0 0.0 0.00 0.00 0.00 97 1016.6
20260510102320 11 358 0.0 0.0 0.00 0.00 0.00 97 1016.6
20260510101812 11 358 0.0 0.0 0.00 0.00 0.00 97 1016.6
20260510101042 12 358 0.0 0.0 0.00 0.00 0.00 97 1016.4
20260510100536 12 358 0.0 0.0 0.00 0.00 0.00 97 1016.5
20260510100030 12 358 0.0 0.0 0.00 0.00 0.00 97 1016.5
20260510095524 12 358 0.0 0.0 0.00 0.00 0.00 97 1016.4
20260510095236 12 358 0.0 0.0 0.00 0.00 0.00 97 1016.3
20260510094512 12 0 0.0 0.0 0.00 0.00 0.00 97 1016.3
20260510094005 12 0 0.0 3.2 0.00 0.00 0.00 97 1016.3
20260510092715 12 318 0.0 0.0 0.00 0.00 0.00 96 1016.2
20260510091942 12 318 0.0 1.6 0.00 0.00 0.00 96 1016.1
20260510091436 12 318 0.0 1.6 0.00 0.00 0.00 96 1016.1
20260510090930 12 300 0.0 1.6 0.00 0.00 0.00 95 1016.1
20260510090424 12 300 0.0 0.0 0.00 0.00 0.00 95 1016.1
20260510085917 12 299 0.0 0.0 0.00 0.00 0.00 95 1016.1
20260510085628 13 299 0.0 0.0 0.00 0.00 0.00 95 1016.1
20260510084906 13 299 0.0 0.0 0.00 0.00 0.00 94 1016.1
20260510084400 13 300 0.0 0.0 0.00 0.00 0.00 94 1016.0
20260510083348 13 299 0.0 1.6 0.00 0.00 0.00 93 1015.8
20260510082848 13 299 0.0 1.6 0.00 0.00 0.00 93 1015.8
20260510082606 13 299 0.0 1.6 0.00 0.00 0.00 93 1015.7
20260510081830 13 299 0.0 0.0 0.00 0.00 0.00 92 1015.7
20260510081324 14 299 0.0 0.0 0.00 0.00 0.00 91 1015.6
20260510080818 14 299 0.0 1.6 0.00 0.00 0.00 91 1015.5
20260510080535 14 299 0.0 1.6 0.00 0.00 0.00 91 1015.4
20260510075806 14 299 0.0 3.2 0.00 0.00 0.00 90 1015.4
20260510075300 14 353 0.0 3.2 0.00 0.00 0.00 91 1015.3
20260510074000 13 188 0.0 0.0 0.00 0.00 0.00 97 1015.3
20260510073236 13 188 0.0 0.0 0.00 0.00 0.00 97 1015.3
20260510072730 14 186 0.0 0.0 0.00 0.00 0.00 97 1015.3
20260510072224 13 165 0.0 0.0 0.00 0.00 0.00 97 1015.2
20260510071719 14 165 0.0 0.0 0.00 0.00 0.00 97 1015.1
20260510071439 14 166 0.0 0.0 0.00 0.00 0.00 97 1015.2
20260510070720 14 165 0.0 0.0 0.00 0.00 0.00 97 1015.3
20260510070220 14 153 0.0 1.6 0.00 0.00 0.00 97 1015.2
20260510065720 14 153 0.0 1.6 0.00 0.00 0.00 97 1015.4
20260510065217 14 340 0.0 0.0 0.00 0.00 0.00 97 1015.3
20260510064718 14 341 0.0 1.6 0.00 0.00 0.00 96 1015.3
20260510064439 14 341 0.0 1.6 0.00 0.00 0.00 96 1015.4
20260510063217 15 340 0.0 0.0 0.00 0.00 0.00 96 1015.1
20260510062717 15 340 0.0 0.0 0.00 0.00 0.00 96 1015.2
20260510062217 15 340 0.0 0.0 0.00 0.00 0.00 96 1015.2
20260510061715 15 340 0.0 0.0 0.00 0.00 0.00 96 1015.3
20260510061212 15 340 0.0 0.0 0.00 0.00 0.00 96 1015.2
20260510060712 15 340 0.0 1.6 0.00 0.00 0.00 95 1015.2
20260510060214 15 341 0.0 1.6 0.00 0.00 0.00 95 1015.3
20260510055944 15 341 0.0 0.0 0.00 0.00 0.00 95 1015.3
20260510055214 15 341 0.0 0.0 0.00 0.00 0.00 94 1015.3
20260510054938 15 340 0.0 0.0 0.00 0.00 0.00 94 1015.3
20260510054202 15 340 0.0 0.0 0.00 0.00 0.00 94 1015.3
20260510053921 16 340 0.0 0.0 0.00 0.00 0.00 93 1015.4
20260510053150 16 340 0.0 0.0 0.00 0.00 0.00 93 1015.4
20260510052644 16 341 0.0 0.0 0.00 0.00 0.00 92 1015.4
20260510052406 16 340 0.0 0.0 0.00 0.00 0.00 92 1015.5
20260510051639 16 340 0.0 0.0 0.00 0.00 0.00 91 1015.4
20260510051139 16 340 0.0 1.6 0.00 0.00 0.00 91 1015.5
20260510050638 17 340 0.0 1.6 0.00 0.00 0.00 91 1015.5
20260510050139 17 39 0.0 1.6 0.00 0.00 0.00 91 1015.5
20260510045358 17 39 0.0 0.0 0.00 0.00 0.00 90 1015.7
20260510044636 17 39 0.0 3.2 0.00 0.00 0.00 89 1015.6
20260510044135 17 38 1.6 4.8 0.00 0.00 0.00 89 1015.5
20260510043135 17 282 0.0 4.8 0.00 0.00 0.00 89 1015.5
20260510042131 17 240 1.6 8.0 0.00 0.00 0.00 89 1015.5
20260510041630 17 266 1.6 6.4 0.00 0.00 0.00 88 1015.5
20260510041132 17 221 1.6 6.4 0.00 0.00 0.00 88 1015.5
20260510040851 17 242 1.6 6.4 0.00 0.00 0.00 88 1015.5
20260510040131 17 213 1.6 6.4 0.00 0.00 0.00 88 1015.5
20260510035631 17 213 1.6 4.8 0.00 0.00 0.00 88 1015.6
20260510035131 17 244 1.6 6.4 0.00 0.00 0.00 88 1015.6
20260510034630 17 252 1.6 6.4 0.00 0.00 0.00 88 1015.6
20260510034131 17 295 1.6 6.4 0.00 0.00 0.00 87 1015.6
20260510033628 17 199 1.6 6.4 0.00 0.00 0.00 88 1015.6
20260510033128 17 268 1.6 6.4 0.00 0.00 0.00 87 1015.7
20260510032853 17 204 1.6 8.0 0.00 0.00 0.00 87 1015.6
20260510032133 17 215 1.6 8.0 0.00 0.00 0.00 87 1015.7
20260510031627 17 157 1.6 4.8 0.00 0.00 0.00 87 1015.5
20260510030345 18 207 3.2 8.0 0.00 0.00 0.00 86 1015.5
20260510025625 18 186 3.2 6.4 0.00 0.00 0.00 86 1015.4
20260510025340 18 162 1.6 6.4 0.00 0.00 0.00 86 1015.4
20260510024656 18 219 1.6 4.8 0.00 0.00 0.00 86 1015.3
20260510024120 18 181 1.6 4.8 0.00 0.00 0.00 86 1015.3
20260510023843 18 199 1.6 4.8 0.00 0.00 0.00 85 1015.3
20260510023121 18 150 1.6 4.8 0.00 0.00 0.00 85 1015.2
20260510022619 18 203 1.6 4.8 0.00 0.00 0.00 85 1015.3
20260510022346 18 217 1.6 4.8 0.00 0.00 0.00 85 1015.3
20260510021621 18 168 1.6 4.8 0.00 0.00 0.00 85 1015.2
20260510021341 18 217 1.6 4.8 0.00 0.00 0.00 85 1015.0
20260510020615 18 207 1.6 3.2 0.00 0.00 0.00 84 1015.1
20260510020336 18 221 1.6 4.8 0.00 0.00 0.00 84 1015.2
20260510015617 18 158 1.6 4.8 0.00 0.00 0.00 84 1015.1
20260510015115 18 208 1.6 4.8 0.00 0.00 0.00 84 1015.0
20260510014615 18 210 1.6 4.8 0.00 0.00 0.00 84 1015.0
20260510014115 18 195 1.6 6.4 0.00 0.00 0.00 83 1014.9
20260510013616 18 201 1.6 6.4 0.00 0.00 0.00 83 1014.7
20260510013344 18 213 1.6 4.8 0.00 0.00 0.00 83 1014.6
20260510012612 18 212 1.6 4.8 0.00 0.00 0.00 83 1014.5
20260510012333 18 221 0.0 4.8 0.00 0.00 0.00 83 1014.5
20260510011613 18 184 0.0 3.2 0.00 0.00 0.00 82 1014.3
20260510011333 19 180 1.6 3.2 0.00 0.00 0.00 82 1014.2
20260510010838 19 207 1.6 4.8 0.00 0.00 0.00 82 1014.2
20260510010114 19 165 1.6 4.8 0.00 0.00 0.00 81 1014.1
20260510005612 20 163 1.6 6.4 0.00 0.00 0.00 80 1014.1
20260510005115 20 224 1.6 6.4 0.00 0.00 0.00 80 1014.0
20260510004614 20 231 1.6 4.8 0.00 0.00 0.00 79 1013.8
20260510004107 20 181 3.2 8.0 0.00 0.00 0.00 79 1013.8
20260510003823 20 147 3.2 8.0 0.00 0.00 0.00 78 1013.8
20260510003322 20 239 3.2 8.0 0.00 0.00 0.00 77 1013.7
20260510002550 20 195 3.2 8.0 0.00 0.00 0.00 77 1013.7
20260510002044 20 210 3.2 8.0 0.00 0.00 0.00 76 1013.8
20260510001537 21 218 3.2 9.7 0.00 0.00 0.00 76 1013.7
20260510001032 21 198 3.2 9.7 0.00 0.00 0.00 75 1013.7
20260510000525 21 160 1.6 8.0 0.00 0.00 0.00 74 1013.5
20260510000021 21 203 1.6 6.4 0.00 0.00 0.00 73 1013.5
20260509235513 21 257 1.6 8.0 0.00 0.00 0.00 73 1013.4
20260509235008 21 183 3.2 8.0 0.00 0.00 0.00 73 1013.4
20260509234501 21 214 1.6 6.4 0.00 0.00 0.00 72 1013.5
20260509233955 21 173 3.2 8.0 0.00 0.00 0.00 72 1013.2
20260509233450 21 207 3.2 9.7 0.00 0.00 0.00 71 1013.0
20260509232944 21 217 4.8 9.7 0.00 0.00 0.00 71 1013.0
20260509232657 21 156 1.6 9.7 0.00 0.00 0.00 71 1012.9
20260509231931 22 161 0.0 6.4 0.00 0.00 0.00 71 1012.7
20260509231425 22 218 1.6 4.8 0.00 0.00 0.00 71 1013.0
20260509230919 22 213 1.6 4.8 0.00 0.00 0.00 71 1012.8
20260509230414 22 178 0.0 3.2 0.00 0.00 0.00 71 1012.8
20260509225907 22 197 0.0 3.2 0.00 0.00 0.00 71 1012.6
20260509225620 22 236 0.0 1.6 0.00 0.00 0.00 71 1012.6
20260509224855 22 236 0.0 4.8 0.00 0.00 0.00 70 1012.7
20260509224349 22 274 1.6 4.8 0.00 0.00 0.00 69 1012.5
20260509224115 22 236 1.6 8.0 0.00 0.00 0.00 69 1012.4
20260509223337 22 206 4.8 9.7 0.00 0.00 0.00 68 1012.6
20260509222831 22 181 3.2 9.7 0.00 0.00 0.00 67 1012.7
20260509222325 22 165 3.2 9.7 0.00 0.00 0.00 68 1012.5
20260509221820 23 214 3.2 9.7 0.00 0.00 0.00 65 1012.6
20260509221314 23 276 3.2 9.7 0.00 0.00 0.00 65 1012.6
20260509220807 23 274 4.8 12.9 0.00 0.00 0.00 64 1012.5
20260509220532 24 184 6.4 12.9 0.00 0.00 0.00 64 1012.6
20260509215756 24 156 6.4 17.7 0.00 0.00 0.00 65 1012.7
20260509215250 23 131 8.0 17.7 0.00 0.00 0.00 64 1012.5
20260509214743 23 271 6.4 17.7 0.00 0.00 0.00 65 1012.6
20260509214238 23 229 3.2 9.7 0.00 0.00 0.00 66 1012.5
20260509213958 23 269 3.2 9.7 0.00 0.00 0.00 67 1012.4
20260509213226 23 93 4.8 11.3 0.00 0.00 0.00 66 1012.4
20260509212720 23 168 4.8 11.3 0.00 0.00 0.00 66 1012.5
20260509212213 23 264 6.4 14.5 0.00 0.00 0.00 67 1012.4
20260509211707 23 229 4.8 14.5 0.00 0.00 0.00 66 1012.5
20260509211202 23 229 3.2 14.5 0.00 0.00 0.00 66 1012.4
20260509210656 23 254 3.2 9.7 0.00 0.00 0.00 66 1012.1
20260509210150 23 238 3.2 9.7 0.00 0.00 0.00 63 1012.0
20260509205643 23 214 3.2 11.3 0.00 0.00 0.00 65 1012.1